Date String (YYYY-MM-DD hh:mm:ss) UTC,Instrument flags,absolute air pressure of the measurement (hPa),sample flow rate (lpm),inlet stack bypass flow (lpm),air temperature of the measurement (°C),ambient temperature measured by the external sensor (°C),aerosol sample conditioner tube jacket temperature (°C),OPC LED temperature (°C),internal box temperature (°C),relative humidity of the measurement (%),span deviation,mass concentration of particles derived from Lorenz-Mie calculation of OPC scattering (μg/m³),mass concentration of particles derived from Lorenz-Mie calculation of OPC scattering (μg/m³),mass concentration of particles derived from Lorenz-Mie calculation of OPC scattering (μg/m³)
DateTimeUTC,F1_M11,P_M11,Q1_M11,Q2_M11,T1_M11,T2_M11,T3_M11,T4_M11,T5_M11,U1_M11,ZSPAN_M11,X0_M11,X2_M11,X1_M11
2023-11-11 21:00:00,SystemResetWarning,0830.1,5.01,000.00,027.4,026.5,000.0,035.6,028.8,5.2,0000.0,0006.02,0002.16,0001.58
2023-11-11 21:01:00,SystemResetWarning,0830.2,5.01,000.00,027.4,026.5,000.0,035.6,028.8,5.2,0000.0,0006.01,0002.19,0001.58
2023-11-11 21:02:00,SystemResetWarning,0830.2,5.00,000.00,027.5,026.5,000.0,035.6,028.8,5.3,0000.0,0005.12,0002.18,0001.59
2023-11-11 21:03:00,SystemResetWarning,0830.2,5.00,000.00,027.4,026.5,000.0,035.7,028.8,5.2,0000.0,0004.95,0002.19,0001.59
2023-11-11 21:04:00,SystemResetWarning,0830.2,5.00,000.00,027.4,026.5,000.0,035.7,028.8,5.2,0000.0,0005.09,0002.24,0001.58
2023-11-11 21:05:00,SystemResetWarning,0830.2,5.00,000.00,027.5,026.5,000.0,035.7,028.8,5.3,0000.0,0004.52,0002.24,0001.58
2023-11-11 21:06:00,SystemResetWarning,0830.2,5.00,000.00,027.5,026.5,000.0,035.7,028.9,5.6,0000.0,0005.18,0002.30,0001.59
2023-11-11 21:07:00,SystemResetWarning,0830.2,5.00,000.00,027.5,026.5,000.0,035.7,028.9,5.6,0000.0,0005.55,0002.30,0001.59
2023-11-11 21:08:00,SystemResetWarning,0830.2,5.00,000.00,027.5,026.5,000.0,035.7,028.9,5.5,0000.0,0005.83,0002.28,0001.59
2023-11-11 21:09:00,SystemResetWarning,0830.2,5.01,000.00,027.5,026.5,000.0,035.7,028.9,5.4,0000.0,0005.94,0002.31,0001.60
2023-11-11 21:10:00,SystemResetWarning,0830.2,4.99,000.00,027.5,026.5,000.0,035.7,028.8,5.3,0000.0,0005.88,0002.35,0001.64
2023-11-11 21:11:00,SystemResetWarning,0830.2,5.00,000.00,027.5,026.5,000.0,035.7,028.8,5.2,0000.0,0005.74,0002.41,0001.68
2023-11-11 21:12:00,SystemResetWarning,0830.3,5.00,000.00,027.5,026.5,000.0,035.7,028.9,5.4,0000.0,0005.80,0002.44,0001.69
2023-11-11 21:13:00,SystemResetWarning,0830.3,5.00,000.00,027.5,026.5,000.0,035.7,028.9,5.6,0000.0,0005.83,0002.47,0001.70
2023-11-11 21:14:00,SystemResetWarning,0830.3,5.00,000.00,027.5,026.5,000.0,035.7,028.8,5.7,0000.0,0005.89,0002.49,0001.71
2023-11-11 21:15:00,SystemResetWarning,0830.2,5.00,000.00,027.5,026.5,000.0,035.8,028.8,5.8,0000.0,0006.21,0002.48,0001.72
2023-11-11 21:16:00,SystemResetWarning,0830.2,5.00,000.00,027.5,026.5,000.0,035.8,028.9,5.6,0000.0,0006.57,0002.48,0001.73
2023-11-11 21:17:00,SystemResetWarning,0830.2,5.00,000.00,027.5,026.5,000.0,035.8,028.9,5.6,0000.0,0006.56,0002.46,0001.75
2023-11-11 21:18:00,SystemResetWarning,0830.3,5.00,000.00,027.5,026.5,000.0,035.8,028.9,5.6,0000.0,0006.15,0002.44,0001.77
2023-11-11 21:19:00,SystemResetWarning,0830.3,5.00,000.00,027.5,026.5,000.0,035.8,028.9,5.6,0000.0,0006.10,0002.51,0001.81
2023-11-11 21:20:00,SystemResetWarning,0830.3,5.00,000.00,027.5,026.5,000.0,035.8,028.9,5.6,0000.0,0006.12,0002.55,0001.83
2023-11-11 21:21:00,SystemResetWarning,0830.3,5.00,000.00,027.5,026.5,000.0,035.8,028.9,5.6,0000.0,0005.99,0002.60,0001.83
2023-11-11 21:22:00,SystemResetWarning,0830.3,5.00,000.00,027.5,026.5,000.0,035.8,028.9,5.5,0000.0,0006.16,0002.66,0001.83
2023-11-11 21:23:00,SystemResetWarning,0830.3,5.00,000.00,027.5,026.5,000.0,035.8,028.9,5.5,0000.0,0006.17,0002.67,0001.84
2023-11-11 21:24:00,SystemResetWarning,0830.3,5.00,000.00,027.5,026.5,000.0,035.8,028.9,5.6,0000.0,0006.45,0002.66,0001.86
2023-11-11 21:25:00,SystemResetWarning,0830.3,4.99,000.00,027.5,026.5,000.0,035.8,028.9,5.6,0000.0,0006.51,0002.67,0001.89
2023-11-11 21:26:00,SystemResetWarning,0830.3,4.99,000.00,027.5,026.5,000.0,035.8,028.9,5.6,0000.0,0006.28,0002.69,0001.91
2023-11-11 21:27:00,SystemResetWarning,0830.3,5.00,000.00,027.5,026.5,000.0,035.8,028.9,5.6,0000.0,0005.79,0002.75,0001.94
2023-11-11 21:28:00,SystemResetWarning,0830.3,5.00,000.00,027.5,026.5,000.0,035.8,028.9,5.7,0000.0,0005.37,0002.74,0001.93
2023-11-11 21:29:00,SystemResetWarning,0830.3,5.00,000.00,027.5,026.5,000.0,035.8,028.9,5.7,0000.0,0004.97,0002.80,0001.93
2023-11-11 21:30:00,SystemResetWarning,0830.3,5.01,000.00,027.6,026.5,000.0,035.8,028.9,5.7,0000.0,0005.03,0002.79,0001.92
2023-11-11 21:31:00,SystemResetWarning,0830.3,5.01,000.00,027.6,026.5,000.0,035.8,028.9,5.7,0000.0,0004.85,0002.74,0001.92
2023-11-11 21:32:00,SystemResetWarning,0830.4,5.01,000.00,027.6,026.5,000.0,035.8,028.9,5.7,0000.0,0004.97,0002.70,0001.93
2023-11-11 21:33:00,SystemResetWarning,0830.3,4.99,000.00,027.6,026.5,000.0,035.8,028.9,5.7,0000.0,0004.98,0002.70,0001.95
2023-11-11 21:34:00,SystemResetWarning,0830.3,5.00,000.00,027.6,026.5,000.0,035.8,028.9,5.7,0000.0,0005.20,0002.74,0001.96
2023-11-11 21:35:00,SystemResetWarning,0830.3,5.00,000.00,027.5,026.5,000.0,035.8,028.9,5.7,0000.0,0005.11,0002.75,0001.97
2023-11-11 21:36:00,SystemResetWarning,0830.3,4.99,000.00,027.6,026.5,000.0,035.8,028.9,5.8,0000.0,0005.14,0002.77,0001.97
2023-11-11 21:37:00,SystemResetWarning,0830.3,5.01,000.00,027.6,026.5,000.0,035.8,028.9,5.8,0000.0,0005.30,0002.78,0001.96
2023-11-11 21:38:00,SystemResetWarning,0830.3,5.01,000.00,027.6,026.5,000.0,035.9,028.9,5.8,0000.0,0005.36,0002.79,0001.97
2023-11-11 21:39:00,SystemResetWarning,0830.3,4.99,000.00,027.6,026.5,000.0,035.9,028.9,5.7,0000.0,0005.52,0002.81,0001.99
2023-11-11 21:40:00,SystemResetWarning,0830.4,4.99,000.00,027.6,026.5,000.0,035.9,029.0,5.7,0000.0,0005.54,0002.86,0002.02
2023-11-11 21:41:00,SystemResetWarning,0830.4,5.00,000.00,027.6,026.5,000.0,035.9,029.0,5.7,0000.0,0005.47,0002.87,0002.04
2023-11-11 21:42:00,SystemResetWarning,0830.3,5.00,000.00,027.6,026.5,000.0,035.9,029.0,5.7,0000.0,0005.52,0002.86,0002.06
2023-11-11 21:43:00,SystemResetWarning,0830.4,5.00,000.00,027.6,026.5,000.0,035.9,029.0,5.8,0000.0,0005.49,0002.87,0002.07
2023-11-11 21:44:00,SystemResetWarning,0830.3,5.00,000.00,027.6,026.6,000.0,035.9,029.0,5.7,0000.0,0005.21,0002.84,0002.05
2023-11-11 21:45:00,SystemResetWarning,0830.3,5.01,000.00,027.6,026.6,000.0,035.9,029.0,5.6,0000.0,0005.07,0002.81,0002.04
2023-11-11 21:46:00,SystemResetWarning,0830.3,5.01,000.00,027.6,026.6,000.0,035.9,029.0,5.6,0000.0,0004.70,0002.74,0002.03
2023-11-11 21:47:00,SystemResetWarning,0830.3,5.00,000.00,027.6,026.6,000.0,035.9,029.0,5.7,0000.0,0004.52,0002.70,0002.03
2023-11-11 21:48:00,SystemResetWarning,0830.3,5.00,000.00,027.6,026.6,000.0,035.9,029.0,5.7,0000.0,0004.35,0002.69,0002.03
2023-11-11 21:49:00,SystemResetWarning,0830.3,5.00,000.00,027.6,026.6,000.0,035.9,029.0,5.7,0000.0,0004.40,0002.70,0002.04
2023-11-11 21:50:00,SystemResetWarning,0830.3,5.00,000.00,027.6,026.5,000.0,035.9,028.9,5.7,0000.0,0004.10,0002.64,0002.03
2023-11-11 21:51:00,SystemResetWarning,0830.4,4.99,000.00,027.6,026.5,000.0,035.9,028.9,5.7,0000.0,0004.09,0002.62,0002.02
2023-11-11 21:52:00,SystemResetWarning,0830.4,4.99,000.00,027.6,026.5,000.0,035.9,029.0,5.7,0000.0,0004.19,0002.64,0002.04
2023-11-11 21:53:00,SystemResetWarning,0830.4,4.99,000.00,027.6,026.5,000.0,035.9,029.0,5.7,0000.0,0004.04,0002.64,0002.05
2023-11-11 21:54:00,SystemResetWarning,0830.4,5.01,000.00,027.6,026.5,000.0,035.9,029.0,5.7,0000.0,0004.05,0002.64,0002.06
2023-11-11 21:55:00,SystemResetWarning,0830.4,5.01,000.00,027.6,026.5,000.0,035.9,029.0,5.8,0000.0,0004.28,0002.65,0002.06
2023-11-11 21:56:00,SystemResetWarning,0830.3,5.00,000.00,027.6,026.5,000.0,035.9,029.0,5.8,0000.0,0004.33,0002.64,0002.06
2023-11-11 21:57:00,SystemResetWarning,0830.3,5.00,000.00,027.6,026.5,000.0,035.9,029.0,5.7,0000.0,0004.37,0002.65,0002.07
2023-11-11 21:58:00,SystemResetWarning,0830.3,4.99,000.00,027.6,026.5,000.0,035.9,029.0,5.6,0000.0,0004.36,0002.65,0002.06
2023-11-11 21:59:00,SystemResetWarning,0830.3,5.00,000.00,027.6,026.5,000.0,035.9,029.0,5.7,0000.0,0004.63,0002.70,0002.06
